Time,TemperatureF,DewpointF,PressureIn,WindDirection,WindDirectionDegrees,WindSpeedMPH,WindSpeedGustMPH,Humidity,HourlyPrecipIn,Conditions,Clouds,dailyrainin,SoftwareType,DateUTC
2013-08-12 00:07:00,74.1,71.0,29.76,WSW,238,0.0,0.0,89,0.00,,,0.00,weatherlink.com 1.10,2013-08-12 05:07:00,
2013-08-12 00:22:00,73.7,71.0,29.77,WSW,238,0.0,0.0,90,0.00,,,0.00,weatherlink.com 1.10,2013-08-12 05:22:00,
2013-08-12 00:37:00,73.5,71.0,29.77,WSW,238,0.0,1.0,90,0.00,,,0.00,weatherlink.com 1.10,2013-08-12 05:37:00,
2013-08-12 00:52:00,73.6,71.0,29.77,SSW,198,0.0,1.0,90,0.00,,,0.00,weatherlink.com 1.10,2013-08-12 05:52:00,
2013-08-12 01:07:00,73.7,71.0,29.77,SSW,198,0.0,1.0,90,0.00,,,0.00,weatherlink.com 1.10,2013-08-12 06:07:00,
2013-08-12 01:22:00,73.7,71.0,29.78,SSW,198,0.0,0.0,90,0.00,,,0.00,weatherlink.com 1.10,2013-08-12 06:22:00,
2013-08-12 01:37:00,73.7,70.0,29.78,SSW,198,0.0,0.0,88,0.00,,,0.00,weatherlink.com 1.10,2013-08-12 06:37:00,
2013-08-12 01:52:00,73.6,70.0,29.78,SSW,198,0.0,0.0,87,0.00,,,0.00,weatherlink.com 1.10,2013-08-12 06:52:00,
2013-08-12 02:07:00,73.4,69.0,29.78,SSW,198,0.0,0.0,87,0.00,,,0.00,weatherlink.com 1.10,2013-08-12 07:07:00,
2013-08-12 02:22:00,73.1,69.0,29.78,SSW,198,0.0,0.0,87,0.00,,,0.00,weatherlink.com 1.10,2013-08-12 07:22:00,
2013-08-12 02:37:00,72.6,68.0,29.78,SSW,198,0.0,0.0,86,0.00,,,0.00,weatherlink.com 1.10,2013-08-12 07:37:00,
2013-08-12 02:52:00,72.2,67.0,29.77,SSW,198,0.0,1.0,84,0.00,,,0.00,weatherlink.com 1.10,2013-08-12 07:52:00,
2013-08-12 03:07:00,71.6,66.0,29.77,SSW,198,0.0,0.0,83,0.00,,,0.00,weatherlink.com 1.10,2013-08-12 08:07:00,
2013-08-12 03:22:00,71.2,66.0,29.77,SSW,198,0.0,0.0,83,0.00,,,0.00,weatherlink.com 1.10,2013-08-12 08:22:00,
2013-08-12 03:38:00,71.0,66.0,29.77,SSW,198,0.0,0.0,83,0.00,,,0.00,weatherlink.com 1.10,2013-08-12 08:38:00,
2013-08-12 03:52:00,70.7,66.0,29.78,SSW,198,0.0,0.0,84,0.00,,,0.00,weatherlink.com 1.10,2013-08-12 08:52:00,
2013-08-12 04:08:00,70.6,66.0,29.78,SSW,198,0.0,0.0,85,0.00,,,0.00,weatherlink.com 1.10,2013-08-12 09:08:00,
2013-08-12 04:23:00,70.3,66.0,29.78,SSW,198,0.0,0.0,85,0.00,,,0.00,weatherlink.com 1.10,2013-08-12 09:23:00,
2013-08-12 04:38:00,70.1,66.0,29.77,SSW,198,0.0,0.0,86,0.00,,,0.00,weatherlink.com 1.10,2013-08-12 09:38:00,
2013-08-12 04:53:00,69.9,66.0,29.77,SSW,198,0.0,0.0,87,0.00,,,0.00,weatherlink.com 1.10,2013-08-12 09:53:00,
2013-08-12 05:08:00,69.8,66.0,29.77,SSW,198,0.0,0.0,87,0.00,,,0.00,weatherlink.com 1.10,2013-08-12 10:08:00,
2013-08-12 05:23:00,69.7,66.0,29.76,SSW,198,0.0,0.0,87,0.00,,,0.00,weatherlink.com 1.10,2013-08-12 10:23:00,
2013-08-12 05:38:00,69.6,66.0,29.77,SSW,198,0.0,0.0,88,0.00,,,0.00,weatherlink.com 1.10,2013-08-12 10:38:00,
2013-08-12 05:53:00,69.3,66.0,29.77,SSW,198,0.0,0.0,88,0.00,,,0.00,weatherlink.com 1.10,2013-08-12 10:53:00,
2013-08-12 06:08:00,69.0,66.0,29.77,SSW,198,0.0,0.0,90,0.00,,,0.00,weatherlink.com 1.10,2013-08-12 11:08:00,
2013-08-12 06:23:00,69.1,66.0,29.76,SSW,198,0.0,0.0,90,0.00,,,0.00,weatherlink.com 1.10,2013-08-12 11:23:00,
2013-08-12 06:38:00,68.8,66.0,29.76,SSW,198,0.0,0.0,90,0.00,,,0.00,weatherlink.com 1.10,2013-08-12 11:38:00,
2013-08-12 06:53:00,68.7,66.0,29.77,SSW,198,0.0,0.0,90,0.00,,,0.00,weatherlink.com 1.10,2013-08-12 11:53:00,
2013-08-12 07:08:00,68.5,66.0,29.77,SSW,198,0.0,0.0,91,0.00,,,0.00,weatherlink.com 1.10,2013-08-12 12:08:00,
2013-08-12 07:23:00,68.5,66.0,29.76,SSW,198,0.0,1.0,92,0.00,,,0.00,weatherlink.com 1.10,2013-08-12 12:23:00,
2013-08-12 07:38:00,68.4,66.0,29.77,SSW,198,0.0,0.0,92,0.00,,,0.00,weatherlink.com 1.10,2013-08-12 12:38:00,
2013-08-12 07:53:00,68.5,66.0,29.77,SSW,198,0.0,0.0,92,0.00,,,0.00,weatherlink.com 1.10,2013-08-12 12:53:00,
2013-08-12 08:08:00,68.6,66.0,29.78,SSW,198,0.0,0.0,91,0.00,,,0.00,weatherlink.com 1.10,2013-08-12 13:08:00,
2013-08-12 08:23:00,68.4,66.0,29.79,SSW,198,0.0,0.0,92,0.00,,,0.00,weatherlink.com 1.10,2013-08-12 13:23:00,
2013-08-12 08:38:00,68.7,66.0,29.79,SSW,198,0.0,1.0,92,0.00,,,0.00,weatherlink.com 1.10,2013-08-12 13:38:00,
2013-08-12 08:53:00,69.4,67.0,29.80,NW,307,0.0,0.0,91,0.00,,,0.00,weatherlink.com 1.10,2013-08-12 13:53:00,
2013-08-12 09:08:00,70.5,68.0,29.80,NW,307,0.0,1.0,90,0.00,,,0.00,weatherlink.com 1.10,2013-08-12 14:08:00,
2013-08-12 09:23:00,71.5,69.0,29.80,NW,307,0.0,1.0,90,0.00,,,0.00,weatherlink.com 1.10,2013-08-12 14:23:00,
2013-08-12 09:38:00,72.0,69.0,29.80,NW,307,0.0,0.0,89,0.00,,,0.00,weatherlink.com 1.10,2013-08-12 14:38:00,
2013-08-12 09:53:00,73.0,69.0,29.80,NW,307,0.0,1.0,88,0.00,,,0.00,weatherlink.com 1.10,2013-08-12 14:53:00,
2013-08-12 10:08:00,74.0,69.0,29.80,NNW,341,0.0,1.0,84,0.00,,,0.00,weatherlink.com 1.10,2013-08-12 15:08:00,
2013-08-12 10:23:00,74.9,69.0,29.81,NNW,347,0.0,2.0,82,0.00,,,0.00,weatherlink.com 1.10,2013-08-12 15:23:00,
2013-08-12 10:38:00,75.4,70.0,29.81,NNW,338,0.0,2.0,82,0.00,,,0.00,weatherlink.com 1.10,2013-08-12 15:38:00,
2013-08-12 11:08:00,76.6,69.0,29.81,NNW,331,0.0,1.0,78,0.00,,,0.00,weatherlink.com 1.10,2013-08-12 16:08:00,
2013-08-12 11:23:00,77.2,70.0,29.81,NNW,338,0.0,2.0,77,0.00,,,0.00,weatherlink.com 1.10,2013-08-12 16:23:00,
2013-08-12 11:38:00,78.1,70.0,29.81,NW,324,0.0,1.0,76,0.00,,,0.00,weatherlink.com 1.10,2013-08-12 16:38:00,
2013-08-12 11:53:00,78.8,70.0,29.81,NW,324,0.0,1.0,75,0.00,,,0.00,weatherlink.com 1.10,2013-08-12 16:53:00,
2013-08-12 12:08:00,79.8,70.0,29.81,NW,324,0.0,1.0,72,0.00,,,0.00,weatherlink.com 1.10,2013-08-12 17:08:00,
2013-08-12 12:23:00,79.9,68.0,29.81,NNW,344,0.0,1.0,66,0.00,,,0.00,weatherlink.com 1.10,2013-08-12 17:23:00,
2013-08-12 12:38:00,80.0,67.0,29.81,NNW,327,0.0,1.0,64,0.00,,,0.00,weatherlink.com 1.10,2013-08-12 17:38:00,
2013-08-12 12:53:00,81.0,69.0,29.80,NW,325,0.0,1.0,67,0.00,,,0.00,weatherlink.com 1.10,2013-08-12 17:53:00,
2013-08-12 13:08:00,81.6,70.0,29.80,NNW,329,0.0,1.0,68,0.00,,,0.00,weatherlink.com 1.10,2013-08-12 18:08:00,
2013-08-12 13:23:00,81.8,69.0,29.80,NW,326,0.0,1.0,65,0.00,,,0.00,weatherlink.com 1.10,2013-08-12 18:23:00,
2013-08-12 13:38:00,82.0,69.0,29.80,NNW,328,0.0,1.0,64,0.00,,,0.00,weatherlink.com 1.10,2013-08-12 18:38:00,
2013-08-12 13:53:00,82.5,67.0,29.80,NW,324,0.0,1.0,60,0.00,,,0.00,weatherlink.com 1.10,2013-08-12 18:53:00,
2013-08-12 14:09:00,83.4,68.0,29.79,NW,324,0.0,1.0,61,0.00,,,0.00,weatherlink.com 1.10,2013-08-12 19:09:00,
2013-08-12 14:24:00,83.9,68.0,29.79,NW,324,0.0,1.0,60,0.00,,,0.00,weatherlink.com 1.10,2013-08-12 19:24:00,
2013-08-12 14:39:00,83.7,68.0,29.79,NW,325,0.0,2.0,60,0.00,,,0.00,weatherlink.com 1.10,2013-08-12 19:39:00,
2013-08-12 14:54:00,83.6,67.0,29.79,NW,325,0.0,0.0,57,0.00,,,0.00,weatherlink.com 1.10,2013-08-12 19:54:00,
2013-08-12 15:09:00,83.9,68.0,29.78,East,90,0.0,1.0,59,0.00,,,0.00,weatherlink.com 1.10,2013-08-12 20:09:00,
2013-08-12 15:24:00,84.4,65.0,29.78,NNW,329,0.0,5.0,52,0.00,,,0.00,weatherlink.com 1.10,2013-08-12 20:24:00,
2013-08-12 15:39:00,84.1,64.0,29.78,NW,321,0.0,4.0,51,0.00,,,0.00,weatherlink.com 1.10,2013-08-12 20:39:00,
2013-08-12 15:54:00,84.2,65.0,29.78,NNW,333,0.0,2.0,52,0.00,,,0.00,weatherlink.com 1.10,2013-08-12 20:54:00,
2013-08-12 16:09:00,85.4,63.0,29.78,NW,315,0.0,1.0,48,0.00,,,0.00,weatherlink.com 1.10,2013-08-12 21:09:00,
2013-08-12 16:24:00,85.3,63.0,29.78,NNW,346,0.0,1.0,47,0.00,,,0.00,weatherlink.com 1.10,2013-08-12 21:24:00,
2013-08-12 16:39:00,83.9,63.0,29.78,North,355,0.0,1.0,49,0.00,,,0.00,weatherlink.com 1.10,2013-08-12 21:39:00,
2013-08-12 16:54:00,84.4,63.0,29.78,NNW,329,0.0,1.0,49,0.00,,,0.00,weatherlink.com 1.10,2013-08-12 21:54:00,
2013-08-12 17:09:00,85.0,65.0,29.78,NNW,329,0.0,3.0,51,0.00,,,0.00,weatherlink.com 1.10,2013-08-12 22:09:00,
2013-08-12 17:24:00,84.5,64.0,29.78,NNW,329,0.0,1.0,51,0.00,,,0.00,weatherlink.com 1.10,2013-08-12 22:24:00,
2013-08-12 17:39:00,83.6,66.0,29.78,NNW,346,0.0,1.0,55,0.00,,,0.00,weatherlink.com 1.10,2013-08-12 22:39:00,
2013-08-12 17:54:00,82.9,64.0,29.78,NNW,328,0.0,1.0,54,0.00,,,0.00,weatherlink.com 1.10,2013-08-12 22:54:00,
2013-08-12 18:09:00,82.8,64.0,29.78,NNW,328,0.0,0.0,54,0.00,,,0.00,weatherlink.com 1.10,2013-08-12 23:09:00,
2013-08-12 18:24:00,83.8,65.0,29.78,NNW,328,0.0,1.0,53,0.00,,,0.00,weatherlink.com 1.10,2013-08-12 23:24:00,
2013-08-12 18:39:00,83.1,65.0,29.78,NNW,328,0.0,0.0,54,0.00,,,0.00,weatherlink.com 1.10,2013-08-12 23:39:00,
2013-08-12 18:54:00,83.0,65.0,29.78,NNW,328,0.0,0.0,55,0.00,,,0.00,weatherlink.com 1.10,2013-08-12 23:54:00,
2013-08-12 19:09:00,82.3,63.0,29.77,NNW,328,0.0,0.0,53,0.00,,,0.00,weatherlink.com 1.10,2013-08-13 00:09:00,
2013-08-12 19:24:00,81.4,64.0,29.77,NNW,328,0.0,0.0,56,0.00,,,0.00,weatherlink.com 1.10,2013-08-13 00:24:00,
2013-08-12 19:39:00,80.7,63.0,29.77,NNW,328,0.0,0.0,56,0.00,,,0.00,weatherlink.com 1.10,2013-08-13 00:39:00,
2013-08-12 19:54:00,79.8,64.0,29.77,NNW,328,0.0,0.0,58,0.00,,,0.00,weatherlink.com 1.10,2013-08-13 00:54:00,
2013-08-12 20:09:00,78.9,63.0,29.78,NNW,328,0.0,0.0,59,0.00,,,0.00,weatherlink.com 1.10,2013-08-13 01:09:00,
2013-08-12 20:24:00,77.9,64.0,29.77,NNW,328,0.0,0.0,62,0.00,,,0.00,weatherlink.com 1.10,2013-08-13 01:24:00,
2013-08-12 20:39:00,77.0,64.0,29.78,NNW,328,0.0,0.0,65,0.00,,,0.00,weatherlink.com 1.10,2013-08-13 01:39:00,
2013-08-12 20:54:00,76.3,65.0,29.79,NNW,328,0.0,0.0,68,0.00,,,0.00,weatherlink.com 1.10,2013-08-13 01:54:00,
2013-08-12 21:09:00,75.6,65.0,29.80,NNW,328,0.0,0.0,69,0.00,,,0.00,weatherlink.com 1.10,2013-08-13 02:09:00,
2013-08-12 21:24:00,75.0,65.0,29.81,NNW,328,0.0,0.0,70,0.00,,,0.00,weatherlink.com 1.10,2013-08-13 02:24:00,
2013-08-12 21:39:00,74.5,65.0,29.82,NNW,328,0.0,0.0,71,0.00,,,0.00,weatherlink.com 1.10,2013-08-13 02:39:00,
2013-08-12 21:54:00,73.8,64.0,29.83,NNW,328,0.0,0.0,72,0.00,,,0.00,weatherlink.com 1.10,2013-08-13 02:54:00,
2013-08-12 22:09:00,73.2,65.0,29.83,NNW,328,0.0,0.0,75,0.00,,,0.00,weatherlink.com 1.10,2013-08-13 03:09:00,
2013-08-12 22:24:00,72.8,64.0,29.83,NNW,328,0.0,0.0,75,0.00,,,0.00,weatherlink.com 1.10,2013-08-13 03:24:00,
2013-08-12 22:39:00,72.4,64.0,29.84,NNW,328,0.0,0.0,76,0.00,,,0.00,weatherlink.com 1.10,2013-08-13 03:39:00,
2013-08-12 22:54:00,71.9,64.0,29.83,NNW,328,0.0,0.0,77,0.00,,,0.00,weatherlink.com 1.10,2013-08-13 03:54:00,
2013-08-12 23:09:00,71.4,64.0,29.84,NNW,328,0.0,0.0,77,0.00,,,0.00,weatherlink.com 1.10,2013-08-13 04:09:00,
2013-08-12 23:24:00,70.8,64.0,29.84,NNW,328,0.0,0.0,78,0.00,,,0.00,weatherlink.com 1.10,2013-08-13 04:24:00,
2013-08-12 23:39:00,70.4,64.0,29.84,NNW,328,0.0,0.0,79,0.00,,,0.00,weatherlink.com 1.10,2013-08-13 04:39:00,
2013-08-12 23:54:00,69.9,63.0,29.84,NNW,328,0.0,0.0,79,0.00,,,0.00,weatherlink.com 1.10,2013-08-13 04:54:00,